OPS 4682 DEB, 38429

Orbit data source: Space-Track

OPS 4682 DEB, 38429 is space debris in LEO originally from a launch on Sat, 03 Apr 1965 UTC launched from the Air Force Western Test Range (AFWTR). Debris objects in space refer to the collection of defunct objects orbiting the Earth. Examples of debris include non-operational satellites, rocket bodies, and fragments generated from explosions, collisions, or faulty payload assembly.

Loading next visibility...
Identifier
38429, 1965-027EJ
Orbit
LEO
Country
Flag of USUS
Related business
Manufacturer
Unknown
Mission
Spacecraft
Bus & Motor
Unknown
Mass
Unknown
Launch date (UTC)
1965-04-03 (61 years ago)
Launch vehicle
Unknown
Launch site
Air Force Western Test Range (AFWTR)
Object type
Payload
Rocket body
Debris
Shape & HBR
Unknown shape, 0.1 m
Radar Cross Section
Medium (>0.1 m² and <1 m²)

Expand to show TLE details & history
Last TLE update: 6 days ago

TLE from 6 days ago
0 OPS 4682 DEB
1 38429U 65027EJ  26202.15238660 -.00000157  00000-0 -56080-3 0  9996
2 38429  90.2347   1.4601 0039791 306.1907  53.5536 12.98007719593828
Epoch: 2026-07-21T03:39Z
TLE epoch observation values (Epoch: 2026-07-21T03:39:26.202Z)
Latitude
-0.00007°
Longitude
7.67475°
Altitude
1,254.78 km
Speed
7.236 km/s
True Right ascension
00h 05m 50s
True Declination
0° 00' 00"
Sunlit
Object was in daylight at epoch
Visualization orbit readout
Latitude
Unknown
Longitude
Unknown
Altitude
Unknown
Speed
Unknown
Apparent Right ascension
Unknown
Apparent Declination
Unknown
Sunlit
N/A
Visualization observer readout
Local Sidereal Time
00:02:04
Azimuth
Unknown
Elevation
Unknown
Doppler factor
Unknown
Orbital elements
Apogee altitude
1,297.453 km
Perigee altitude
1,236.611 km
Semi-major axis
7,645.169 km
Eccentricity
0.00398
Inclination
90.2347°
RAAN
1.4601°
Arg. of periapsis
306.1907°
True anomaly
53.92147°
Mean anomaly
53.5536°
Eccentric anomaly
53.73743°
Mean motion
3.24685 °/min
Orbital period
110.88 mins
BSTAR
-0.0005608
Loading maneuver chart data...
Computing Atmospheric mass density...
Loading historical data...
Loading historical data...
Loading historical data...
Loading historical data...
Loading historical data...
Loading historical data...
Loading historical data...

Documentation

Showing up to 5 results
|